Tracking 25710 objects as of 5-Jul-2022
HD Live streaming from Space Station
objects crossing your sky now

STARLINK-1918

Track STARLINK-1918 now!
10-day predictions
STARLINK-1918 is classified as:


NORAD ID: 46768
Int'l Code: 2020-074AF
Perigee: 553.4 km
Apogee: 555.4 km
Inclination: 53.1 °
Period: 95.6 minutes
Semi major axis: 6925 km
RCS: Unknown
Launch date: October 24, 2020
Source: United States (US)
Launch site: AIR FORCE EASTERN TEST RANGE (AFETR)
aabbcc
Your satellite tracking list
Your tracking list is empty




NASA's NSSDC Master Catalog

Two Line Element Set (TLE):
1 46768U 20074AF  22185.88244614 -.00001200  00000-0 -61679-4 0  9997
2 46768  53.0539 249.2084 0001416  63.8417 296.2717 15.06385640 93923
Source of the keplerian elements: AFSPC